North Platte, NE

11:25 AM CST on November 22, 2019 (GMT -0600)
North Platte Regional-Bird

Weather History for KLBF - October, 2019

Change the Weather History Date:

Monday, October 21, 2019

  Actual Average Record
Temperature  
Mean Temperature 40 °F 47 °F  
Max Temperature 52 °F 63 °F 90 °F (1921)
Min Temperature 28 °F 32 °F 16 °F (1987)
Degree Days  
Heating Degree Days 25 18  
Month to date heating degree days 365 297  
Since 1 July heating degree days 395 468  
Cooling Degree Days 0 0  
Month to date cooling degree days 0 0  
Year to date cooling degree days 922 765  
Moisture  
Dew Point 28 °F    
Average Humidity 48    
Maximum Humidity 70    
Minimum Humidity 26    
Precipitation  
Precipitation T in 0.06 in 1.05 in (2008)
Month to date precipitation 0.28 1.13  
Year to date precipitation 27.10 18.76  
Snow  
Snow 0.00 in 0.00 in 2.90 in (1979)
Month to date snowfall T 1.1  
Since 1 July snowfall T 1.3  
Since 1 September snowfall T 1.3  
Snow Depth 0.00 in    
Sea Level Pressure  
Sea Level Pressure 29.77 in    
Wind  
Wind Speed 28 mph (NNW)    
Max Wind Speed 45 mph    
Max Gust Speed 67 mph    
Visibility 10 miles    
Events Rain    
T = Trace of Precipitation, MM = Missing Value Source: NWS Daily Summary

Daily Weather History Graph

Daily Weather History Graph

Search for Another Location

Airport or City:

Astronomy

Oct. 21, 2019 Rise Set
Actual Time 8:00 AM CDT 6:53 PM CDT
Civil Twilight 7:32 AM CDT 7:21 PM CDT
Nautical Twilight 7:00 AM CDT 7:53 PM CDT
Astronomical Twilight 6:28 AM CDT 8:25 PM CDT
Moon 12:03 AM CDT (10/21) 3:22 PM CDT (10/21)
Length of Visible Light 11h 48m
Length of Day
10h 52m
Waning Gibbous, 48% of the Moon is Illuminated
Oct 21
Waning Gibbous
Oct 27
New
Nov 4
First Quarter
Nov 12
Full
Nov 19
Last Quarter

Hourly Weather History & Observations

Time (CDT) Temp. Windchill Dew Point Humidity Pressure Visibility Wind Dir Wind Speed Gust Speed Precip Events Conditions
12:34 AM 39.9 °F 28.6 °F 30.9 °F 70% 29.61 in 10.0 mi NNW 28.8 mph 40.3 mph N/A   Mostly Cloudy
12:50 AM 41.0 °F 29.3 °F 30.2 °F 65% 29.61 in 10.0 mi NNW 33.4 mph 47.2 mph N/A   Mostly Cloudy
12:53 AM 41.0 °F 29.5 °F 30.9 °F 67% 29.61 in 10.0 mi NNW 32.2 mph 47.2 mph N/A   Mostly Cloudy
1:53 AM 39.0 °F 26.8 °F 34.0 °F 82% 29.62 in 10.0 mi NW 32.2 mph 48.3 mph 0.00 in Rain Light Rain
2:53 AM 39.9 °F 27.6 °F 35.1 °F 83% 29.62 in 10.0 mi NNW 34.5 mph 48.3 mph 0.00 in   Overcast
3:24 AM 41.0 °F 29.5 °F 34.0 °F 76% 29.62 in 10.0 mi NW 32.2 mph 44.9 mph N/A   Mostly Cloudy
3:53 AM 43.0 °F 32.2 °F 33.1 °F 68% 29.61 in 10.0 mi NNW 32.2 mph 46.0 mph N/A   Mostly Cloudy
4:53 AM 44.1 °F 33.0 °F 32.0 °F 63% 29.61 in 10.0 mi NNW 36.8 mph 52.9 mph 0.00 in   Overcast
6:53 AM 43.0 °F 31.2 °F 30.9 °F 62% 29.64 in 10.0 mi NNW 39.1 mph 54.1 mph N/A   Partly Cloudy
7:53 AM 43.0 °F 31.8 °F 30.9 °F 62% 29.65 in 10.0 mi NNW 34.5 mph 57.5 mph N/A   Mostly Cloudy
8:53 AM 44.1 °F 32.2 °F 32.0 °F 63% 29.67 in 10.0 mi NNW 43.7 mph 66.7 mph N/A   Overcast
9:53 AM 44.1 °F 33.0 °F 33.1 °F 65% 29.70 in 10.0 mi NNW 36.8 mph 56.4 mph N/A   Mostly Cloudy
10:04 AM 45.0 °F 34.4 °F 33.1 °F 63% 29.68 in 10.0 mi NNW 35.7 mph 51.8 mph N/A   Mostly Cloudy
10:53 AM 46.9 °F - 32.0 °F 56% 29.71 in 10.0 mi North 35.7 mph 59.8 mph N/A   Mostly Cloudy
11:53 AM 48.0 °F - 30.9 °F 52% 29.74 in 10.0 mi NNW 41.4 mph 62.1 mph N/A   Overcast
12:53 PM 48.0 °F - 28.9 °F 48% 29.77 in 10.0 mi North 34.5 mph 56.4 mph N/A   Overcast
1:53 PM 50.0 °F - 28.9 °F 44% 29.80 in 10.0 mi NNW 38.0 mph 54.1 mph N/A   Overcast
2:53 PM 50.0 °F - 25.0 °F 38% 29.82 in 10.0 mi North 29.9 mph 49.5 mph N/A   Mostly Cloudy
3:53 PM 51.1 °F - 21.0 °F 31% 29.84 in 10.0 mi North 27.6 mph 49.5 mph N/A   Clear
4:53 PM 52.0 °F - 18.0 °F 26% 29.86 in 10.0 mi North 32.2 mph 50.6 mph N/A   Clear
5:53 PM 50.0 °F - 19.0 °F 29% 29.90 in 10.0 mi NNW 31.1 mph 43.7 mph N/A   Clear
6:53 PM 48.0 °F - 21.0 °F 34% 29.93 in 10.0 mi NNW 16.1 mph 33.4 mph N/A   Clear
7:53 PM 44.1 °F 37.1 °F 21.9 °F 42% 29.96 in 10.0 mi NNW 15.0 mph - N/A   Clear
8:53 PM 37.0 °F 30.4 °F 23.0 °F 57% 29.99 in 10.0 mi NNW 9.2 mph - N/A   Clear
9:53 PM 36.0 °F 30.3 °F 21.9 °F 57% 30.01 in 10.0 mi North 6.9 mph - N/A   Clear
10:53 PM 30.9 °F 25.2 °F 21.9 °F 69% 30.03 in 10.0 mi North 5.8 mph - N/A   Clear
11:53 PM 32.0 °F 25.6 °F 21.9 °F 66% 30.04 in 10.0 mi North 6.9 mph - N/A   Clear